Location: Ottawa
(45.4170°N, 75.7000°W)
Time: 01:33:18
(UTC-04:00)

Amateur Radio Satellites - All Passes

Search period start: 31 October 2014 01:03
Search period end: 01 November 2014 01:03
Location: Ottawa, 45.4170°N, 75.7000°W

Satellite Date Start Highest point End Downlink Frequencies (MHz)
Time Altitude Azimuth
Oscar 19 31 Oct 01:25:05 01:28:01 15° 89° (E) 01:30:55 437.125 CW, 437.150 USB
JAS-1B 31 Oct 01:54:33 02:01:00 36° 97° (E) 02:08:30 435.800 - 435.900 CW/SSB
AO-27 31 Oct 02:00:15 02:02:43 13° 88° (E) 02:05:10 436.795 MHz FM
Oscar 16 31 Oct 02:10:40 02:15:29 40° 98° (E) 02:20:16 437.025 USB, Beacon 2401.1428
Sapphire 31 Oct 02:24:46 02:29:41 37° 112° (ESE) 02:34:39 437.095 MHz 1200 baud AX-25 AFSK
Uribyol 2 31 Oct 02:42:38 02:47:21 34° 96° (E) 02:52:01 436.500 FM
PCSat 31 Oct 02:46:01 02:51:19 60° 117° (ESE) 02:56:40 145.825 MHz
AO-Echo 31 Oct 02:50:14 02:55:26 51° 99° (E) 03:00:34 ?
ITAMSAT 1 31 Oct 02:50:22 02:55:13 37° 97° (E) 03:00:00 435.822 SSB
RS-15 31 Oct 02:59:53 03:09:03 29° 10° (N) 03:18:25 29.354 - 29.394 USB, Beacon 29.352 USB
Oscar 19 31 Oct 03:02:47 03:07:54 73° 287° (WNW) 03:13:00 437.125 CW, 437.150 USB
AO-27 31 Oct 03:37:38 03:42:54 84° 286° (WNW) 03:48:07 436.795 MHz FM
JAS-1B 31 Oct 03:45:04 03:51:43 52° 292° (WNW) 03:59:38 435.800 - 435.900 CW/SSB
Gurwin Techsat 1B 31 Oct 03:49:59 03:55:19 70° 102° (ESE) 04:00:37 435.225 FM
Oscar 16 31 Oct 03:50:20 03:54:42 29° 296° (WNW) 03:59:03 437.025 USB, Beacon 2401.1428
TMSAT-1 31 Oct 03:56:44 04:02:01 61° 101° (E) 04:07:14 436.925 FM
Sapphire 31 Oct 04:08:02 04:13:05 39° 312° (NW) 04:18:11 437.095 MHz 1200 baud AX-25 AFSK
OPAL 31 Oct 04:17:04 04:21:17 27° 61° (ENE) 04:25:27 ?
Uribyol 2 31 Oct 04:22:08 04:26:48 35° 294° (WNW) 04:31:27 436.500 FM
AO-Echo 31 Oct 04:29:36 04:33:52 25° 297° (WNW) 04:38:07 ?
ITAMSAT 1 31 Oct 04:30:02 04:34:37 32° 295° (WNW) 04:39:10 435.822 SSB
PCSat 31 Oct 04:30:32 04:35:07 27° 317° (NW) 04:39:44 145.825 MHz
Uosat F 31 Oct 04:41:50 04:45:53 24° 93° (E) 04:49:53 435.120 FM
Oscar 19 31 Oct 04:44:44 04:46:21 11° 305° (NW) 04:47:58 437.125 CW, 437.150 USB
JAS-2 31 Oct 04:56:01 05:00:56 18° 84° (E) 05:05:45 435.800 - 435.900 CW/SSB, 435.910 FM
AO-7 31 Oct 04:56:18 05:04:15 46° 100° (E) 05:12:10 29.400 - 29.500 MHz
Saudisat 1A 31 Oct 05:09:48 05:11:47 13° 109° (ESE) 05:13:46 436.775 MHz
RS-15 31 Oct 05:13:44 05:24:35 55° 42° (NE) 05:35:49 29.354 - 29.394 USB, Beacon 29.352 USB
AO-27 31 Oct 05:19:05 05:21:37 14° 304° (NW) 05:24:08 436.795 MHz FM
Gurwin Techsat 1B 31 Oct 05:31:08 05:34:44 19° 301° (WNW) 05:38:20 435.225 FM
TMSAT-1 31 Oct 05:37:35 05:41:29 21° 299° (WNW) 05:45:22 436.925 FM
JAS-1B 31 Oct 05:39:16 05:41:05 11° 311° (NW) 05:42:59 435.800 - 435.900 CW/SSB
OPAL 31 Oct 05:55:05 05:59:57 44° 259° (WSW) 06:04:48 ?
Sapphire 31 Oct 05:56:25 05:58:07 11° 335° (NNW) 05:59:50 437.095 MHz 1200 baud AX-25 AFSK
Hamsat 31 Oct 06:11:08 06:14:42 26° 95° (E) 06:18:15 145.90 MHz
STRAND 1 31 Oct 06:12:07 06:16:45 35° 66° (ENE) 06:21:25 ?
Uosat F 31 Oct 06:20:03 06:24:53 46° 291° (WNW) 06:29:41 435.120 FM
JAS-2 31 Oct 06:39:09 06:47:04 80° 103° (ESE) 06:54:46 435.800 - 435.900 CW/SSB, 435.910 FM
Saudisat 1A 31 Oct 06:46:20 06:50:43 79° 307° (NW) 06:55:09 436.775 MHz
AO-7 31 Oct 06:49:14 06:57:02 46° 300° (WNW) 07:04:49 29.400 - 29.500 MHz
SO-67 31 Oct 07:18:46 07:21:02 16° 92° (E) 07:23:18 435.3500 MHz FM
RS-15 31 Oct 07:26:22 07:37:05 55° 246° (WSW) 07:48:15 29.354 - 29.394 USB, Beacon 29.352 USB
Hamsat 31 Oct 07:46:56 07:50:38 30° 291° (WNW) 07:54:21 145.90 MHz
STRAND 1 31 Oct 07:51:22 07:55:57 32° 264° (W) 08:00:34 ?
MaSat-1 31 Oct 08:13:48 08:16:08 34° 247° (WSW) 08:18:21 437.345 MHz
JAS-2 31 Oct 08:25:04 08:31:17 27° 303° (WNW) 08:37:27 435.800 - 435.900 CW/SSB, 435.910 FM
Saudisat 1A 31 Oct 08:28:15 08:31:00 16° 327° (NNW) 08:33:46 436.775 MHz
AO-7 31 Oct 08:44:30 08:47:46 13° 323° (NW) 08:51:02 29.400 - 29.500 MHz
SO-67 31 Oct 08:51:00 08:54:06 31° 289° (WNW) 08:57:11 435.3500 MHz FM
Sapphire 31 Oct 09:28:02 09:30:38 13° 29° (NNE) 09:33:14 437.095 MHz 1200 baud AX-25 AFSK
HO-68 31 Oct 09:34:06 09:40:53 42° 98° (E) 09:47:37 435.675 MHz FM
RS-15 31 Oct 09:44:51 09:46:44 11° 268° (W) 09:48:39 29.354 - 29.394 USB, Beacon 29.352 USB
PCSat 31 Oct 09:49:14 09:52:53 18° 35° (NE) 09:56:30 145.825 MHz
UKube-1 31 Oct 09:52:31 09:55:35 18° 92° (E) 09:58:37 145.840 MHz, 145.915 MHz
Oscar 11 31 Oct 10:26:55 10:31:00 41° 98° (E) 10:35:05 145.825 FM, Beacon 2401.500 USB
SO-50 31 Oct 10:35:45 10:38:32 16° 110° (ESE) 10:41:22 436.795 FM
ISS 31 Oct 10:41:18 10:44:26 39° 143° (SE) 10:47:35 145.800 FM
FUNcube-1 31 Oct 10:43:28 10:47:01 26° 95° (E) 10:50:30 145.950 - 145.970 MHz USB
KITSAT 1 31 Oct 10:44:12 10:51:38 43° 111° (ESE) 10:59:06 435.175 FM
Sapphire 31 Oct 11:10:07 11:15:25 50° 52° (NE) 11:20:41 437.095 MHz 1200 baud AX-25 AFSK
HO-68 31 Oct 11:21:54 11:28:36 43° 297° (WNW) 11:35:15 435.675 MHz FM
UKube-1 31 Oct 11:27:48 11:32:00 46° 290° (WNW) 11:36:10 145.840 MHz, 145.915 MHz
PCSat 31 Oct 11:31:47 11:37:14 76° 57° (ENE) 11:42:39 145.825 MHz
ZACube-1 31 Oct 11:36:22 11:40:36 83° 284° (WNW) 11:44:45 437.345 MHz
Oscar 16 31 Oct 11:54:45 11:56:22 11° 54° (NE) 11:57:58 437.025 USB, Beacon 2401.1428
Oscar 11 31 Oct 12:03:41 12:06:56 21° 295° (WNW) 12:10:11 145.825 FM, Beacon 2401.500 USB
SO-50 31 Oct 12:14:02 12:18:32 68° 309° (NW) 12:23:12 436.795 FM
ISS 31 Oct 12:17:56 12:21:08 42° 341° (NNW) 12:24:20 145.800 FM
FUNcube-1 31 Oct 12:19:44 12:23:24 30° 292° (WNW) 12:27:01 145.950 - 145.970 MHz USB
Uribyol 2 31 Oct 12:28:23 12:29:10 10° 53° (NE) 12:29:57 436.500 FM
AO-Echo 31 Oct 12:30:15 12:32:17 12° 55° (NE) 12:34:21 ?
ITAMSAT 1 31 Oct 12:35:24 12:37:01 11° 54° (NE) 12:38:39 435.822 SSB
KITSAT 1 31 Oct 12:39:02 12:46:54 53° 313° (NW) 12:54:48 435.175 FM
Oscar 19 31 Oct 12:43:37 12:47:57 29° 64° (ENE) 12:52:18 437.125 CW, 437.150 USB
JAS-1B 31 Oct 12:44:34 12:49:24 30° 62° (ENE) 12:54:20 435.800 - 435.900 CW/SSB
Sapphire 31 Oct 12:54:01 12:58:35 28° 251° (WSW) 13:03:07 437.095 MHz 1200 baud AX-25 AFSK
UOSAT-12 31 Oct 12:58:36 13:02:54 39° 117° (ESE) 13:07:18 437.025 FM, 437.400 FM
HO-68 31 Oct 13:13:57 13:14:28 10° 319° (NW) 13:14:59 435.675 MHz FM
PCSat 31 Oct 13:16:34 13:20:00 17° 255° (WSW) 13:23:26 145.825 MHz
AO-27 31 Oct 13:19:44 13:24:03 27° 63° (ENE) 13:28:23 436.795 MHz FM
Oscar 16 31 Oct 13:29:41 13:34:49 72° 73° (ENE) 13:39:57 437.025 USB, Beacon 2401.1428
Saudisat 1A 31 Oct 13:31:57 13:35:38 25° 40° (NE) 13:39:18 436.775 MHz
Gurwin Techsat 1B 31 Oct 13:35:22 13:39:13 21° 60° (ENE) 13:43:05 435.225 FM
TMSAT-1 31 Oct 13:42:13 13:45:43 18° 59° (ENE) 13:49:13 436.925 FM
ISS 31 Oct 13:55:27 13:58:22 27° 1° (N) 14:01:16 145.800 FM
SO-50 31 Oct 13:57:13 14:00:00 16° 330° (NNW) 14:02:49 436.795 FM
Uribyol 2 31 Oct 14:02:28 14:07:38 63° 72° (ENE) 14:12:49 436.500 FM
AO-Echo 31 Oct 14:05:09 14:10:09 78° 74° (ENE) 14:15:21 ?
AO-7 31 Oct 14:08:39 14:14:10 20° 46° (NE) 14:19:42 29.400 - 29.500 MHz
ITAMSAT 1 31 Oct 14:10:23 14:15:34 70° 73° (ENE) 14:20:48 435.822 SSB
Oscar 19 31 Oct 14:22:19 14:27:08 41° 262° (W) 14:31:59 437.125 CW, 437.150 USB
JAS-1B 31 Oct 14:34:38 14:40:00 41° 262° (W) 14:45:25 435.800 - 435.900 CW/SSB
KITSAT 1 31 Oct 14:38:29 14:44:22 21° 339° (NNW) 14:50:16 435.175 FM
UOSAT-12 31 Oct 14:38:52 14:43:07 33° 317° (NW) 14:47:26 437.025 FM, 437.400 FM
AO-27 31 Oct 14:58:21 15:03:20 45° 261° (W) 15:08:22 436.795 MHz FM
Saudisat 1A 31 Oct 15:11:09 15:15:28 52° 239° (WSW) 15:19:45 436.775 MHz
Oscar 16 31 Oct 15:11:42 15:14:42 16° 271° (W) 15:17:43 437.025 USB, Beacon 2401.1428
Gurwin Techsat 1B 31 Oct 15:13:28 15:18:43 62° 259° (WSW) 15:24:01 435.225 FM
JAS-2 31 Oct 15:15:20 15:16:15 10° 43° (NE) 15:17:11 435.800 - 435.900 CW/SSB, 435.910 FM
TMSAT-1 31 Oct 15:19:46 15:25:03 73° 257° (WSW) 15:30:23 436.925 FM
ISS 31 Oct 15:32:19 15:35:34 47° 21° (NNE) 15:38:49 145.800 FM
Uribyol 2 31 Oct 15:44:00 15:47:32 18° 269° (W) 15:51:06 436.500 FM
AO-Echo 31 Oct 15:46:58 15:49:34 14° 273° (W) 15:52:13 ?
ITAMSAT 1 31 Oct 15:52:21 15:55:35 17° 270° (W) 15:58:51 435.822 SSB
Uosat F 31 Oct 15:56:58 16:01:40 41° 68° (ENE) 16:06:24 435.120 FM
AO-7 31 Oct 15:57:24 16:05:37 74° 67° (ENE) 16:13:54 29.400 - 29.500 MHz
UOSAT-12 31 Oct 16:23:54 16:24:43 10° 339° (NNW) 16:25:33 437.025 FM, 437.400 FM
KITSAT 1 31 Oct 16:38:13 16:43:21 18° 10° (N) 16:48:29 435.175 FM
JAS-2 31 Oct 16:53:16 16:59:19 45° 65° (ENE) 17:06:08 435.800 - 435.900 CW/SSB, 435.910 FM
Hamsat 31 Oct 17:06:44 17:10:09 25° 67° (ENE) 17:13:34 145.90 MHz
ISS 31 Oct 17:09:09 17:12:11 33° 219° (SW) 17:15:13 145.800 FM
SO-50 31 Oct 17:24:44 17:25:39 11° 21° (NNE) 17:26:35 436.795 FM
Uosat F 31 Oct 17:36:23 17:40:35 27° 265° (W) 17:44:50 435.120 FM
AO-7 31 Oct 17:52:26 17:59:08 27° 267° (W) 18:05:53 29.400 - 29.500 MHz
OPAL 31 Oct 18:02:37 18:07:14 38° 100° (E) 18:11:49 ?
KITSAT 1 31 Oct 18:34:18 18:41:36 35° 38° (NE) 18:48:51 435.175 FM
JAS-2 31 Oct 18:38:38 18:44:29 38° 267° (W) 18:51:03 435.800 - 435.900 CW/SSB, 435.910 FM
Hamsat 31 Oct 18:42:15 18:45:59 31° 264° (W) 18:49:44 145.90 MHz
SO-50 31 Oct 19:03:18 19:07:41 33° 43° (NE) 19:12:06 436.795 FM
SO-67 31 Oct 19:24:55 19:28:20 72° 258° (WSW) 19:31:47 435.3500 MHz FM
OPAL 31 Oct 19:41:45 19:46:00 29° 298° (WNW) 19:50:14 ?
RS-15 31 Oct 19:44:25 19:51:45 21° 99° (E) 19:59:00 29.354 - 29.394 USB, Beacon 29.352 USB
UOSAT-12 31 Oct 19:46:45 19:49:33 15° 30° (NNE) 19:52:19 437.025 FM, 437.400 FM
STRAND 1 31 Oct 19:58:59 20:04:09 73° 103° (ESE) 20:09:16 ?
AO-40 31 Oct 20:03:04 22:20:15 19° 118° (ESE) 23:30:38 Beacon 2401.320
HO-68 31 Oct 20:04:59 20:11:33 41° 62° (ENE) 20:18:08 435.675 MHz FM
KITSAT 1 31 Oct 20:29:38 20:37:42 74° 241° (WSW) 20:45:43 435.175 FM
SO-50 31 Oct 20:43:47 20:48:21 42° 242° (WSW) 20:52:56 436.795 FM
UKube-1 31 Oct 20:50:02 20:53:24 22° 64° (ENE) 20:56:48 145.840 MHz, 145.915 MHz
ZACube-1 31 Oct 21:01:09 21:03:07 13° 60° (ENE) 21:05:05 437.345 MHz
Oscar 11 31 Oct 21:23:55 21:27:59 42° 71° (ENE) 21:32:04 145.825 FM, Beacon 2401.500 USB
UOSAT-12 31 Oct 21:25:55 21:30:38 63° 51° (NE) 21:35:16 437.025 FM, 437.400 FM
STRAND 1 31 Oct 21:39:27 21:42:46 18° 301° (WNW) 21:46:04 ?
FUNcube-1 31 Oct 21:41:39 21:45:34 30° 68° (ENE) 21:49:26 145.950 - 145.970 MHz USB
MaSat-1 31 Oct 21:50:27 21:53:36 24° 111° (ESE) 21:56:31 437.345 MHz
RS-15 31 Oct 21:51:18 22:02:16 81° 122° (ESE) 22:13:14 29.354 - 29.394 USB, Beacon 29.352 USB
HO-68 31 Oct 21:52:22 21:59:10 45° 261° (W) 22:06:02 435.675 MHz FM
UKube-1 31 Oct 22:25:16 22:29:22 40° 261° (W) 22:33:30 145.840 MHz, 145.915 MHz
KITSAT 1 31 Oct 22:27:26 22:31:42 15° 261° (W) 22:35:57 435.175 FM
ZACube-1 31 Oct 22:34:24 22:38:56 80° 257° (WSW) 22:43:23 437.345 MHz
Oscar 11 31 Oct 23:01:14 23:04:22 20° 268° (W) 23:07:31 145.825 FM, Beacon 2401.500 USB
UOSAT-12 31 Oct 23:07:06 23:10:19 18° 249° (WSW) 23:13:30 437.025 FM, 437.400 FM
FUNcube-1 31 Oct 23:17:56 23:21:54 30° 264° (W) 23:25:49 145.950 - 145.970 MHz USB
MaSat-1 31 Oct 23:25:41 23:28:55 27° 304° (NW) 23:31:54 437.345 MHz
RS-15 01 Nov 00:05:44 00:15:48 40° 329° (NNW) 00:26:01 29.354 - 29.394 USB, Beacon 29.352 USB
